Sparta, WI

1:20 AM CDT on August 27, 2016 (GMT -0500)
Sparta-Fort McCoy

Weather History for KCMY - September, 2013

Change the Weather History Date:

Saturday, September 21, 2013

  Actual Average Record
Temperature  
Mean Temperature 50 °F -  
Max Temperature 61 °F 66 °F 87 °F (2005)
Min Temperature 39 °F 45 °F 25 °F (1991)
Degree Days  
Heating Degree Days 15    
Moisture  
Dew Point 44 °F    
Average Humidity 80    
Maximum Humidity 99    
Minimum Humidity 50    
Precipitation  
Precipitation 0.00 in - - ()
Sea Level Pressure  
Sea Level Pressure 29.93 in    
Wind  
Wind Speed 3 mph (WNW)    
Max Wind Speed 12 mph    
Max Gust Speed 17 mph    
Visibility 10 miles    
Events Rain    
Averages and records for this station are not official NWS values.
T = Trace of Precipitation, MM = Missing Value Source: NWS Daily Summary

Daily Weather History Graph

Daily Weather History Graph

Search for Another Location

Airport or City:

Trip Planner

Search our weather history database for the weather conditions in past years. The results will help you decide how hot, cold, wet, or windy it might be!

Date:

Astronomy

Sep. 21, 2013 Rise Set
Actual Time 6:49 AM CDT 7:01 PM CDT
Civil Twilight 6:20 AM CDT 7:30 PM CDT
Nautical Twilight 5:46 AM CDT 8:04 PM CDT
Astronomical Twilight 5:11 AM CDT 8:38 PM CDT
Moon 8:05 PM CDT (9/21) 9:14 AM CDT (9/21)
Length of Visible Light 13h 09m
Length of Day
12h 12m
Waning Gibbous, 94% of the Moon is Illuminated
Sep 21
Waning Gibbous
Sep 26
Last Quarter
Oct 4
New
Oct 11
First Quarter
Oct 18
Full

Hourly Weather History & Observations

Time (CDT) Temp. Windchill Dew Point Humidity Pressure Visibility Wind Dir Wind Speed Gust Speed Precip Events Conditions
12:15 AM 54.5 °F - 49.3 °F 83% 29.89 in 10.0 mi WSW 4.6 mph - N/A   Overcast
12:35 AM 53.4 °F - 49.8 °F 88% 29.89 in 10.0 mi Calm Calm - N/A Rain Light Rain
12:55 AM 52.9 °F - 50.5 °F 92% 29.89 in 10.0 mi SW 3.5 mph - N/A   Overcast
1:15 AM 52.9 °F - 50.5 °F 92% 29.90 in 10.0 mi Calm Calm - N/A   Overcast
1:35 AM 52.7 °F - 50.5 °F 92% 29.90 in 10.0 mi Calm Calm - N/A   Overcast
1:55 AM 52.7 °F - 50.2 °F 91% 29.90 in 10.0 mi Calm Calm - N/A   Overcast
2:15 AM 52.0 °F - 49.6 °F 92% 29.90 in 10.0 mi Calm Calm - N/A   Overcast
2:35 AM 51.6 °F - 49.1 °F 91% 29.90 in 10.0 mi Calm Calm - N/A   Mostly Cloudy
2:55 AM 50.9 °F - 48.6 °F 92% 29.90 in 10.0 mi WSW 3.5 mph - N/A   Mostly Cloudy
3:15 AM 50.4 °F - 48.2 °F 92% 29.90 in 10.0 mi SW 3.5 mph - N/A   Mostly Cloudy
3:35 AM 50.0 °F - 48.2 °F 94% 29.90 in 10.0 mi SW 3.5 mph - N/A   Scattered Clouds
3:55 AM 49.3 °F - 47.5 °F 94% 29.90 in 10.0 mi SW 3.5 mph - N/A   Clear
4:15 AM 47.1 °F - 45.5 °F 94% 29.90 in 10.0 mi Calm Calm - N/A   Clear
4:35 AM 48.0 °F - 47.1 °F 97% 29.91 in 10.0 mi WSW 4.6 mph - N/A   Clear
4:55 AM 45.1 °F - 43.9 °F 95% 29.91 in 10.0 mi Calm Calm - N/A   Clear
5:15 AM 45.0 °F - 44.4 °F 98% 29.92 in 10.0 mi Calm Calm - N/A   Clear
5:35 AM 43.3 °F - 42.8 °F 98% 29.92 in 10.0 mi Calm Calm - N/A   Clear
5:55 AM 43.0 °F - 42.4 °F 98% 29.92 in 10.0 mi Calm Calm - N/A   Clear
6:15 AM 43.0 °F - 42.3 °F 97% 29.93 in 10.0 mi Calm Calm - N/A   Clear
6:35 AM 42.8 °F - 41.9 °F 97% 29.93 in 10.0 mi Calm Calm - N/A   Clear
6:55 AM 43.5 °F - 43.2 °F 99% 29.93 in 10.0 mi Calm Calm - N/A   Scattered Clouds
7:15 AM 43.0 °F - 42.8 °F 99% 29.94 in 10.0 mi Calm Calm - N/A   Scattered Clouds
7:35 AM 45.9 °F - 45.7 °F 99% 29.94 in 10.0 mi Calm Calm - N/A   Scattered Clouds
7:55 AM 47.7 °F - 46.9 °F 97% 29.94 in 10.0 mi Calm Calm - N/A   Clear
8:15 AM 50.4 °F - 47.7 °F 90% 29.94 in 10.0 mi NW 4.6 mph - N/A   Clear
8:35 AM 51.4 °F - 46.4 °F 83% 29.95 in 10.0 mi NW 6.9 mph - N/A   Mostly Cloudy
8:55 AM 52.2 °F - 46.0 °F 80% 29.95 in 10.0 mi NW 8.1 mph - N/A   Overcast
9:15 AM 52.2 °F - 45.1 °F 77% 29.95 in 10.0 mi NW 10.4 mph - N/A   Overcast
9:35 AM 52.3 °F - 45.1 °F 76% 29.95 in 10.0 mi NW 9.2 mph - N/A   Overcast
9:55 AM 52.7 °F - 45.1 °F 75% 29.95 in 10.0 mi WNW 8.1 mph - N/A   Overcast
10:15 AM 53.6 °F - 44.2 °F 71% 29.95 in 10.0 mi WNW 10.4 mph 16.1 mph N/A   Overcast
10:35 AM 54.5 °F - 43.5 °F 66% 29.95 in 10.0 mi NW 11.5 mph 17.3 mph N/A   Overcast
10:55 AM 55.0 °F - 42.4 °F 63% 29.95 in 10.0 mi NW 8.1 mph 17.3 mph N/A   Overcast
11:15 AM 54.9 °F - 42.8 °F 64% 29.96 in 10.0 mi NW 8.1 mph 16.1 mph N/A   Overcast
11:35 AM 54.1 °F - 42.8 °F 66% 29.96 in 10.0 mi NW 8.1 mph - N/A   Overcast
11:55 AM 54.5 °F - 43.2 °F 66% 29.97 in 10.0 mi NNW 9.2 mph - N/A   Overcast
12:15 PM 55.4 °F - 41.9 °F 60% 29.96 in 10.0 mi WNW 8.1 mph - N/A   Overcast
12:35 PM 55.6 °F - 42.6 °F 62% 29.96 in 10.0 mi NW 9.2 mph - N/A   Overcast
12:55 PM 56.1 °F - 43.0 °F 61% 29.96 in 10.0 mi NW 10.4 mph - N/A   Overcast
1:15 PM 57.6 °F - 42.3 °F 57% 29.96 in 10.0 mi NW 10.4 mph - N/A   Overcast
1:35 PM 57.0 °F - 41.9 °F 57% 29.95 in 10.0 mi WNW 8.1 mph 17.3 mph N/A   Overcast
1:55 PM 57.7 °F - 42.4 °F 57% 29.95 in 10.0 mi NW 10.4 mph - N/A   Overcast
2:15 PM 58.5 °F - 42.3 °F 55% 29.95 in 10.0 mi NW 9.2 mph - N/A   Overcast
2:35 PM 59.2 °F - 42.6 °F 54% 29.95 in 10.0 mi West 10.4 mph - N/A   Mostly Cloudy
2:55 PM 59.5 °F - 42.6 °F 54% 29.94 in 10.0 mi West 8.1 mph - N/A   Mostly Cloudy
3:15 PM 59.7 °F - 43.0 °F 54% 29.94 in 10.0 mi NNW 9.2 mph - N/A   Scattered Clouds
3:35 PM 61.3 °F - 42.4 °F 50% 29.93 in 10.0 mi NNW 9.2 mph - N/A   Scattered Clouds
3:55 PM 60.8 °F - 43.0 °F 52% 29.93 in 10.0 mi NW 5.8 mph 9.2 mph N/A   Scattered Clouds
4:15 PM 59.5 °F - 42.6 °F 54% 29.93 in 10.0 mi WNW 6.9 mph - N/A   Scattered Clouds
4:35 PM 60.3 °F - 42.6 °F 52% 29.93 in 10.0 mi WNW 10.4 mph - N/A   Mostly Cloudy
4:55 PM 60.4 °F - 43.0 °F 53% 29.92 in 10.0 mi West 4.6 mph - N/A   Mostly Cloudy
5:15 PM 60.3 °F - 43.0 °F 53% 29.92 in 10.0 mi WNW 9.2 mph - N/A   Mostly Cloudy
5:35 PM 60.6 °F - 42.8 °F 52% 29.92 in 10.0 mi WNW 6.9 mph - N/A   Scattered Clouds
5:55 PM 60.3 °F - 43.2 °F 53% 29.92 in 10.0 mi WNW 4.6 mph - N/A   Scattered Clouds
6:15 PM 60.1 °F - 43.7 °F 55% 29.92 in 10.0 mi WNW 4.6 mph - N/A   Clear
6:35 PM 59.0 °F - 44.6 °F 59% 29.92 in 10.0 mi Calm Calm - N/A   Clear
6:55 PM 55.4 °F - 45.3 °F 69% 29.92 in 10.0 mi Calm Calm - N/A   Clear
7:15 PM 50.7 °F - 45.3 °F 82% 29.92 in 10.0 mi Calm Calm - N/A   Clear
7:35 PM 48.6 °F - 45.5 °F 89% 29.93 in 10.0 mi Calm Calm - N/A   Clear
7:55 PM 48.4 °F - 46.8 °F 94% 29.93 in 10.0 mi Calm Calm - N/A   Clear
8:15 PM 47.1 °F - 45.9 °F 95% 29.94 in 10.0 mi Calm Calm - N/A   Clear
8:35 PM 45.7 °F - 44.6 °F 96% 29.95 in 10.0 mi Calm Calm - N/A   Clear
8:55 PM 45.7 °F - 44.8 °F 97% 29.95 in 10.0 mi Calm Calm - N/A   Clear
9:15 PM 43.9 °F - 43.3 °F 98% 29.95 in 10.0 mi Calm Calm - N/A   Clear
9:35 PM 43.7 °F - 43.2 °F 98% 29.96 in 10.0 mi Calm Calm - N/A   Clear
9:55 PM 42.4 °F - 42.1 °F 99% 29.96 in 10.0 mi Calm Calm - N/A   Clear
10:15 PM 42.3 °F - 41.9 °F 99% 29.97 in 10.0 mi Calm Calm - N/A   Clear
10:35 PM 40.6 °F 38.6 °F 40.3 °F 99% 29.97 in 10.0 mi South 3.5 mph - N/A   Clear
10:55 PM 40.5 °F - 40.3 °F 99% 29.97 in 10.0 mi Calm Calm - N/A   Clear
11:15 PM 39.9 °F - 39.7 °F 99% 29.98 in 10.0 mi Calm Calm - N/A   Clear
11:35 PM 39.6 °F - 39.2 °F 99% 29.98 in 10.0 mi Calm Calm - N/A   Clear
11:55 PM 40.1 °F - 39.7 °F 99% 29.98 in 10.0 mi Calm Calm - N/A   Clear